Location: Dompnac
(44.5644°N, 4.1026°E)
Time: 10:40:48
(UTC+00:00)

Cosmos 1634 Rocket - Pass Details

Date: 19 September 2020
Orbit: 961 x 991 km, 82.9° (Epoch: 29 October)

Event Time Altitude Azimuth Distance (km) Brightness Sun altitude
Exits shadow 19:59:02 46° 148° (SSE) 1,278 4.2 -23.6°
Maximum altitude 20:00:42 62° 93° (E) 1,078 3.9 -23.9°
Drops below altitude 10° 20:06:48 10° 14° (NNE) 2,714 6.5 -24.8°
Sets 20:09:21 0° 12° (NNE) 3,669 7.2 -25.2°
